Location: Moscow Pond
(43.6842°N, 73.2366°W)
Time: 01:59:05
(UTC+00:00)

Cosmos 1939 Rocket - Pass Details

Date: 08 November 2025
Orbit: 492 x 528 km, 97.5° (Epoch: 04 December)

Event Time Altitude Azimuth Distance (km) Brightness Sun altitude
Rises 09:59:08 0° 5° (N) 2,686 6.3 -18.2°
Reaches altitude 10° 10:01:20 10° 357° (N) 1,791 5.3 -17.8°
Maximum altitude 10:04:57 39° 288° (WNW) 801 3.1 -17.1°
Enters shadow 10:05:40 36° 260° (W) 861 3.3 -17.0°
